TimeCST,TemperatureF,Dew PointF,Humidity,Sea Level PressureIn,VisibilityMPH,Wind Direction,Wind SpeedMPH,Gust SpeedMPH,PrecipitationIn,Events,Conditions,WindDirDegrees,DateUTC
12:00 AM,74,69,81,29.99,6,ENE,5.8,,,,Haze,70,2012-11-13 06:00:00
12:00 AM,73.4,69.8,88,29.98,6.2,ENE,5.8,-,N/A,,Scattered Clouds,70,2012-11-13 06:00:00
6:00 AM,71,69,93,29.99,2,SSE,5.8,,,Rain,Rain,160,2012-11-13 12:00:00
9:00 AM,76,72,85,30.04,12,SW,3.5,,,Rain,Light Rain,230,2012-11-13 15:00:00
9:00 AM,77.0,71.6,83,30.04,6.2,SW,3.5,-,N/A,,Scattered Clouds,230,2012-11-13 15:00:00
10:00 AM,80.6,73.4,79,30.04,6.2,NNE,3.5,-,N/A,,Scattered Clouds,20,2012-11-13 16:00:00
11:00 AM,73.4,69.8,88,30.04,1.9,NE,9.2,-,N/A,Rain,Light Rain,50,2012-11-13 17:00:00
12:00 PM,72,68,85,30.03,2,ESE,11.5,,,Rain,Light Rain,120,2012-11-13 18:00:00
12:00 PM,71.6,68.0,88,30.01,2.5,ESE,11.5,-,N/A,Rain,Light Rain,120,2012-11-13 18:00:00
1:00 PM,75.2,66.2,73,29.98,6.2,SE,10.4,-,N/A,,Mostly Cloudy,130,2012-11-13 19:00:00
2:00 PM,78.8,66.2,65,29.95,6.2,SE,4.6,-,N/A,,Mostly Cloudy,140,2012-11-13 20:00:00
3:00 PM,79,69,64,29.94,12,Calm,Calm,,,,Haze,,2012-11-13 21:00:00
3:00 PM,78.8,69.8,74,29.92,6.2,Calm,Calm,-,N/A,,Mostly Cloudy,0,2012-11-13 21:00:00
4:00 PM,78.8,71.6,78,29.95,6.2,SE,2.3,-,N/A,,Mostly Cloudy,140,2012-11-13 22:00:00
5:00 PM,77.0,71.6,83,29.95,6.2,Calm,Calm,-,N/A,,Scattered Clouds,0,2012-11-13 23:00:00
6:00 PM,74,70,84,29.98,9,SSE,2.3,,,,Haze,150,2012-11-14 00:00:00
6:00 PM,73.4,69.8,88,29.98,6.2,SSE,2.3,-,N/A,,Scattered Clouds,150,2012-11-14 00:00:00
7:00 PM,71.6,68.0,88,29.98,6.2,Calm,Calm,-,N/A,,Scattered Clouds,0,2012-11-14 01:00:00
8:00 PM,71.6,68.0,88,30.01,6.2,Calm,Calm,-,N/A,,Mostly Cloudy,0,2012-11-14 02:00:00
9:00 PM,71,67,85,30.04,11,Calm,Calm,,,,Haze,,2012-11-14 03:00:00
9:00 PM,69.8,68.0,94,30.04,6.2,Calm,Calm,-,N/A,,Scattered Clouds,0,2012-11-14 03:00:00
10:00 PM,68.0,66.2,94,30.04,6.2,SSE,2.3,-,N/A,,Partly Cloudy,150,2012-11-14 04:00:00
11:00 PM,68.0,66.2,94,30.01,6.2,Calm,Calm,-,N/A,,Partly Cloudy,0,2012-11-14 05:00:00